EW1736 Weather Reports


Display with metric or nautical units.
time (UTC)temp
F
wind
direction
speed
MPH
gust
MPH
rain 1hr
in
rain 24hr
in
rain mn
in
humidity
%
barometer
mb
20240518221839 56 187 5.0 6.0 0.00 0.00 0.00 79 1020.1
20240518215637 56 204 3.0 5.0 0.00 0.00 0.00 81 1019.9
20240518214132 55 173 4.0 5.0 0.00 0.00 0.00 84 1020.0
20240518212635 54 198 3.0 6.0 0.00 0.00 0.00 86 1019.9
20240518211125 53 194 3.0 6.0 0.00 0.00 0.00 89 1019.9
20240518210321 52 215 4.0 7.0 0.00 0.00 0.00 90 1019.9
20240518204120 51 213 4.0 7.0 0.00 0.00 0.00 91 1019.8
20240518202616 50 192 4.0 6.0 0.00 0.00 0.00 93 1019.8
20240518201112 49 194 2.0 6.0 0.00 0.00 0.00 94 1019.7
20240518195613 49 193 3.0 5.0 0.00 0.00 0.00 94 1019.6
20240518194108 48 218 3.0 6.0 0.00 0.00 0.00 94 1019.5
20240518192604 48 207 4.0 8.0 0.00 0.00 0.00 94 1019.3
20240518191106 48 215 4.0 6.0 0.00 0.00 0.00 94 1019.2
20240518185601 48 209 3.0 6.0 0.00 0.00 0.00 94 1019.2
20240518184056 47 210 3.0 5.0 0.00 0.00 0.00 94 1019.0
20240518182552 48 217 3.0 5.0 0.00 0.00 0.00 94 1018.9
20240518181047 48 197 3.0 5.0 0.00 0.00 0.00 94 1018.9
20240518175544 48 191 3.0 5.0 0.00 0.00 0.00 94 1018.8
20240518174800 47 208 2.0 3.0 0.00 0.00 0.00 94 1018.7
20240518172540 46 252 2.0 3.0 0.00 0.00 0.00 93 1018.6
20240518171036 46 239 1.0 3.0 0.00 0.00 0.00 93 1018.6
20240518165526 46 239 2.0 3.0 0.00 0.00 0.00 93 1018.5
20240518164025 46 239 1.0 2.0 0.00 0.00 0.00 92 1018.5
20240518162522 47 238 1.0 3.0 0.00 0.00 0.00 93 1018.5
20240518161018 48 254 2.0 4.0 0.00 0.00 0.00 93 1018.3
20240518155518 48 234 2.0 5.0 0.00 0.00 0.00 93 1018.4
20240518155425 49 234 3.0 5.0 0.00 0.00 0.00 93 1018.4
20240518152509 48 235 2.0 4.0 0.00 0.00 0.00 93 1018.7
20240518151010 48 240 3.0 4.0 0.00 0.00 0.00 92 1018.7
20240518145506 48 244 3.0 5.0 0.00 0.00 0.00 92 1018.9
20240518144001 48 222 2.0 4.0 0.00 0.00 0.00 92 1019.0
20240518142457 48 268 4.0 6.0 0.00 0.00 0.00 92 1019.0
20240518140958 48 244 3.0 7.0 0.00 0.00 0.00 92 1019.0
20240518135453 48 225 3.0 4.0 0.00 0.00 0.00 92 1019.1
20240518133947 48 228 2.0 4.0 0.00 0.00 0.00 92 1019.0
20240518132445 49 238 2.0 4.0 0.00 0.00 0.00 92 1019.1
20240518130944 49 196 3.0 4.0 0.00 0.00 0.00 92 1019.0
20240518125442 49 207 2.0 3.0 0.00 0.00 0.00 92 1019.0
20240518123936 49 221 2.0 4.0 0.00 0.00 0.00 92 1019.1
20240518123145 48 221 3.0 4.0 0.00 0.00 0.00 92 1019.4
20240518121625 47 247 3.0 4.0 0.00 0.00 0.00 91 1019.4
20240518115429 47 252 2.0 4.0 0.00 0.00 0.00 90 1019.5
20240518114632 48 240 2.0 4.0 0.00 0.00 0.00 90 1019.5
20240518112420 48 217 3.0 5.0 0.00 0.00 0.00 90 1019.4
20240518110920 48 239 4.0 6.0 0.00 0.00 0.00 90 1019.5
20240518105416 48 250 3.0 4.0 0.00 0.00 0.00 90 1019.4
20240518103911 49 250 3.0 4.0 0.00 0.00 0.00 89 1019.5
20240518102408 50 211 2.0 4.0 0.00 0.00 0.00 89 1019.6
20240518100857 50 213 3.0 4.0 0.00 0.00 0.00 89 1019.6
20240518100058 50 227 2.0 4.0 0.00 0.00 0.00 88 1019.8
20240518093855 51 223 3.0 4.0 0.00 0.00 0.00 88 1019.7
20240518092344 51 203 2.0 3.0 0.00 0.00 0.00 88 1019.6
20240518090844 51 232 1.0 2.0 0.00 0.00 0.00 87 1019.6
20240518085341 51 232 1.0 3.0 0.00 0.00 0.00 86 1019.5
20240518083842 52 232 1.0 2.0 0.00 0.00 0.00 85 1019.5
20240518082336 52 232 2.0 3.0 0.00 0.00 0.00 85 1019.5
20240518081527 53 178 2.0 5.0 0.00 0.00 0.00 84 1019.4
20240518075334 53 188 3.0 4.0 0.00 0.00 0.00 83 1019.4
20240518073830 53 161 2.0 4.0 0.00 0.00 0.00 83 1019.4
20240518073022 54 145 1.0 5.0 0.00 0.00 0.00 82 1019.4
20240518070825 55 126 2.0 5.0 0.00 0.00 0.00 81 1019.4
20240518065321 55 199 3.0 5.0 0.00 0.00 0.00 82 1019.2
20240518063817 55 164 1.0 4.0 0.00 0.00 0.00 81 1019.1
20240518062312 56 148 1.0 4.0 0.00 0.00 0.00 80 1019.0
20240518060823 57 230 3.0 6.0 0.00 0.00 0.00 79 1018.9
20240518055308 57 194 4.0 7.0 0.00 0.00 0.00 78 1018.7
20240518054518 58 208 5.0 7.0 0.00 0.00 0.00 78 1018.7
20240518053002 58 141 2.0 8.0 0.00 0.00 0.00 76 1018.8
20240518050808 58 146 3.0 6.0 0.00 0.00 0.00 76 1018.8
20240518045302 59 124 2.0 4.0 0.00 0.00 0.00 75 1018.6
20240518043803 60 312 2.0 5.0 0.00 0.00 0.00 72 1018.4
20240518042252 61 304 3.0 8.0 0.00 0.00 0.00 71 1018.5
20240518040758 61 272 4.0 5.0 0.00 0.00 0.00 72 1018.6
20240518035249 61 51 4.0 5.0 0.00 0.00 0.00 72 1018.5
20240518033749 61 15 3.0 6.0 0.00 0.00 0.00 72 1018.5
20240518032244 61 346 3.0 4.0 0.00 0.00 0.00 72 1018.4
20240518030745 61 37 4.0 7.0 0.00 0.00 0.00 70 1018.4
20240518025237 62 159 3.0 9.0 0.00 0.00 0.00 67 1018.4
20240518024425 63 153 3.0 6.0 0.00 0.00 0.00 65 1018.5
20240518022229 63 178 3.0 7.0 0.00 0.00 0.00 64 1018.6
20240518020724 63 156 4.0 7.0 0.00 0.00 0.00 64 1018.5
20240518015224 62 173 3.0 8.0 0.00 0.00 0.00 64 1018.5
20240518013724 62 163 5.0 9.0 0.00 0.00 0.00 64 1018.6
20240518012215 62 135 5.0 8.0 0.00 0.00 0.00 64 1018.7
20240518011410 62 182 4.0 7.0 0.00 0.00 0.00 64 1018.8
20240518005212 63 176 2.0 5.0 0.00 0.00 0.00 63 1019.0
20240518004423 62 214 2.0 7.0 0.00 0.00 0.00 65 1019.2
20240518002205 62 178 3.0 6.0 0.00 0.00 0.00 66 1019.4
20240518000709 63 184 2.0 4.0 0.00 0.00 0.00 68 1019.9
20240517235158 61 153 1.0 4.0 0.00 0.00 0.00 70 1020.1
20240517233703 60 207 2.0 6.0 0.00 0.00 0.00 73 1020.4
20240517232154 60 178 2.0 5.0 0.00 0.00 0.00 74 1020.7
20240517230700 60 186 2.0 0.0 0.00 0.00 0.00 75 1021.1
20240517230213 60 184 2.0 4.0 0.00 0.00 0.00 75 1021.2
20240517224708 59 272 2.0 5.0 0.00 0.00 0.00 76 1021.4
20240517223204 59 186 3.0 5.0 0.00 0.00 0.00 74 1021.5